Retour au catalogue

COSMOS 2491 DEB

ActifPO
NORAD 57558·DEBRIS·🇷🇺 Russia

Lancé Dec 25, 2013 depuis Plesetsk Cosmodrome

Loading…

Prochains Passages (prochaines 24 heures)

TLE

PériméSource: Space-Track

Époque: Nov 9, 2024, 20:55 UTC

1 57558U 13076AV  24314.87204794  .00002733  00000-0  18418-1 0  9990
2 57558  82.4833 167.8215 0050904 312.9305  46.7512 12.47564132 68555

Suivez COSMOS 2491 DEB en temps réel avec AllMySat

Download on the App Store